Wind_Speed
4 3 2 0 3 5 8 10 11 10 9 8 8 7 7 8 11 12 13 15 15 15 15 14 15 17 17 15 14 18 19 19 19 17 15 14 13 13 12 13 14 15 18
4 2 1 3 5 9 11 11 9 6 5 5 4 5 8 10 11 13 11 13 14 14 15 15 15 15 15 17 16 14 18 20 18 17 16 17 15 15 14 13 13 15 15
3 3 3 6 9 10 8 6 5 4 3 4 6 7 9 11 11 11 9 9 9 11 11 13 14 16 18 20 20 18 14 14 21 19 17 17 17 15 14 14 14 15 15
4 4 6 6 6 6 6 5 5 5 5 7 10 10 11 11 10 3 3 4 5 6 9 12 15 19 22 22 21 20 19 16 13 19 19 16 17 17 16 13 14 16 15
3 5 5 5 4 5 5 5 6 6 7 10 12 11 14 13 6 1 2 4 6 8 10 14 18 20 22 25 25 23 21 19 17 14 17 19 19 17 16 15 16 15 14
5 5 6 5 6 7 7 8 8 8 6 10 13 11 14 10 3 1 4 5 7 10 12 15 17 19 25 27 28 27 24 22 19 18 15 17 18 20 19 17 17 14 12
4 6 7 9 11 12 13 12 10 9 9 12 12 15 14 5 2 1 4 6 9 12 14 17 19 22 22 24 26 27 24 23 22 20 18 17 17 18 21 21 19 15 14
7 9 12 16 15 12 10 8 7 7 7 8 9 12 6 8 10 7 8 9 13 15 18 22 22 22 22 22 23 25 24 22 23 22 20 19 18 18 20 23 20 17 15
15 15 15 16 13 12 6 4 5 7 10 8 6 5 5 5 14 11 16 15 19 21 21 20 21 21 21 20 20 21 21 24 25 24 22 20 19 18 18 23 22 19 17
14 15 16 16 12 7 1 3 6 8 8 9 9 6 7 11 7 9 15 19 18 21 20 18 21 20 21 22 21 23 26 27 26 25 22 21 20 19 21 21 21 20 18
19 18 16 17 12 4 0 2 4 6 6 6 5 7 8 10 10 10 11 16 19 17 17 19 16 19 20 23 22 22 28 29 28 25 21 19 19 18 19 23 19 18 17
22 21 19 15 9 4 1 2 4 4 1 2 3 4 7 9 10 10 10 16 20 21 20 20 19 19 21 23 23 24 26 26 26 24 20 16 16 13 16 16 18 17 18
20 19 20 12 7 4 4 4 3 5 3 3 4 6 7 9 10 11 12 16 16 26 23 21 22 22 23 24 23 24 24 25 21 17 18 18 16 12 8 14 14 15 16
20 22 14 11 7 3 3 6 8 6 5 6 8 8 9 12 10 10 10 13 13 22 28 28 25 24 24 24 28 25 21 22 19 15 16 16 20 17 12 8 14 13 15
22 16 9 10 5 4 9 7 9 9 8 9 10 10 11 12 11 10 10 11 15 14 16 31 31 27 30 30 28 25 22 18 19 14 13 12 13 20 18 18 13 12 11
19 10 10 9 8 13 7 10 9 9 11 11 12 11 12 10 10 11 14 16 17 21 15 28 31 30 29 28 27 27 23 20 16 17 11 10 10 12 14 20 19 15 16
17 10 12 10 10 12 12 10 10 11 12 12 11 10 12 11 14 16 17 18 19 19 20 32 28 28 28 26 26 24 20 17 11 17 15 10 10 11 13 14 20 20 13
14 10 9 10 16 17 14 11 12 11 12 12 10 10 13 15 17 19 19 19 20 21 23 28 27 25 24 23 24 23 16 14 14 14 16 10 10 10 10 14 17 15 16
14 12 16 19 16 14 11 11 13 12 10 9 10 12 15 17 20 21 21 22 21 21 20 23 28 27 24 22 22 20 21 16 14 12 12 12 10 9 9 9 14 17 18
15 14 15 17 16 12 8 11 10 7 8 9 12 14 16 18 19 21 22 21 21 19 23 24 24 24 23 21 18 18 20 15 14 10 12 10 7 8 8 6 15 15 16
11 12 12 8 6 7 6 4 5 7 11 14 15 16 16 16 19 19 20 21 22 22 21 20 22 21 20 18 15 12 15 16 13 10 10 9 6 4 6 8 5 17 7
11 12 10 8 5 5 5 7 8 9 12 13 15 16 17 16 14 17 17 17 18 21 22 20 21 18 21 18 17 11 11 13 9 2 4 6 5 6 4 5 7 1 16
12 10 10 7 5 4 5 9 13 9 11 13 14 15 15 15 15 15 16 19 19 17 19 22 21 19 19 17 18 16 12 12 13 11 10 11 7 8 7 4 2 3 9
12 10 8 6 3 1 6 11 15 10 11 12 13 13 15 15 14 17 21 20 18 18 17 18 18 19 19 19 17 16 17 16 17 16 11 12 10 10 8 7 9 6 3
9 7 5 5 2 1 7 11 12 9 11 13 13 13 14 14 15 19 20 20 19 20 15 16 18 18 19 19 18 18 18 14 13 16 14 13 15 14 11 10 11 14 13
10 7 6 5 3 4 8 10 10 9 11 14 13 13 12 13 17 20 19 18 19 19 20 19 16 14 15 16 16 16 18 17 11 10 10 10 10 7 5 5 9 10 13
Wind_Direction
268 269 251 148 23 3 354 348 344 344 342 349 354 2 13 9 0 359 359 352 348 340 337 330 313 303 304 312 294 293 308 315 320 321 318 303 292 283 275 268 265 259 241
266 230 113 26 354 345 343 342 340 335 341 355 5 5 3 360 355 348 348 345 341 343 344 338 344 351 330 318 334 315 288 296 309 315 315 312 298 290 279 271 266 262 254
72 63 350 343 339 336 342 342 335 325 342 359 354 345 338 343 347 338 341 340 346 345 339 331 332 359 7 4 3 1 344 292 285 297 306 308 305 296 283 276 275 265 253
16 338 337 347 355 3 4 356 349 359 359 345 335 332 330 334 341 350 30 15 1 350 343 337 332 342 351 354 353 353 352 344 315 277 288 291 298 296 293 287 270 266 258
20 2 17 34 27 15 15 15 6 6 358 344 334 323 325 324 321 337 29 22 8 2 356 338 327 327 330 334 336 338 338 338 336 316 281 284 285 284 287 282 273 261 258
30 26 29 15 7 5 9 3 359 5 1 345 330 315 317 307 265 343 357 7 3 357 352 346 339 331 323 321 324 322 325 323 323 325 307 282 280 277 272 275 271 271 264
30 28 24 12 5 355 345 333 329 338 340 348 330 322 312 262 190 356 338 332 349 348 346 341 334 329 322 324 319 316 318 315 311 310 310 300 281 253 253 253 262 269 271
33 21 8 349 341 331 322 322 346 343 345 0 341 313 308 287 277 292 314 325 334 337 329 328 329 324 321 316 314 315 311 311 309 302 298 297 288 267 247 245 249 260 265
1 351 343 334 326 320 304 334 1 2 346 354 9 334 311 294 316 288 308 309 320 322 324 327 329 329 326 315 310 307 309 308 304 301 294 290 287 278 261 242 236 243 255
355 343 337 334 321 304 293 28 20 18 6 342 332 319 304 301 306 299 300 307 314 319 321 327 328 329 330 323 311 309 304 301 303 300 291 290 283 277 257 241 229 235 239
346 337 326 316 299 248 239 36 30 21 11 356 334 315 310 306 296 302 302 314 306 313 314 318 315 322 327 321 314 314 311 304 301 299 290 284 283 274 260 235 225 225 229
326 319 313 301 246 220 179 35 14 357 16 340 308 316 313 314 309 302 303 309 310 315 316 313 312 316 317 311 309 313 320 307 300 296 290 276 277 272 248 212 211 205 221
317 313 306 274 209 181 321 315 317 309 269 288 297 310 304 303 297 298 306 308 309 310 312 308 311 310 310 307 299 312 314 319 304 303 294 270 265 253 237 207 200 202 215
312 307 291 215 181 306 296 306 278 276 285 284 287 286 296 299 293 295 298 302 304 304 306 306 307 305 302 304 301 302 301 322 320 299 299 285 259 248 235 229 211 211 211
321 308 239 191 252 296 312 281 295 298 294 286 289 293 294 296 292 287 289 290 297 301 300 305 304 301 297 295 293 293 296 306 347 309 314 309 274 254 242 224 224 202 191
326 289 219 224 297 316 302 291 293 286 286 288 291 287 293 286 286 290 294 293 290 290 294 299 302 302 299 295 286 288 284 285 325 344 306 304 309 296 274 238 226 223 227
326 282 234 247 287 307 287 278 274 279 284 286 287 282 282 285 292 294 295 295 292 292 292 296 299 303 302 297 292 284 273 272 292 338 345 293 306 304 294 257 232 231 229
318 291 267 279 303 287 277 265 272 275 290 286 290 286 289 296 295 299 301 299 296 294 292 292 300 300 307 306 294 288 259 274 265 292 341 329 307 309 298 272 244 232 205
311 296 300 304 297 291 278 277 280 287 296 296 295 295 299 300 302 305 303 300 297 297 294 290 295 296 293 300 303 279 276 272 270 291 289 328 333 326 309 291 232 205 191
318 309 299 298 290 288 284 290 289 297 304 301 299 302 305 305 306 306 304 298 300 296 295 291 289 293 291 295 308 278 271 259 270 275 278 271 314 332 336 318 229 198 203
326 325 310 317 319 302 300 299 311 318 312 307 308 311 310 308 307 304 301 301 301 297 293 292 290 290 292 299 302 319 289 272 271 274 275 262 276 330 0 359 308 217 177
311 319 306 335 353 1 341 319 322 324 320 319 319 317 316 318 316 310 305 300 297 296 294 296 293 284 286 287 294 288 307 290 277 244 287 278 301 278 341 11 349 25 202
299 300 301 299 294 290 301 321 326 333 327 325 324 324 324 322 322 318 313 306 304 301 293 294 283 286 294 295 298 294 284 282 278 282 307 293 290 283 280 299 91 14 90
299 286 279 275 210 286 322 333 333 332 328 328 328 326 323 321 321 322 317 315 314 314 309 296 284 279 282 285 286 288 286 278 275 274 276 275 278 282 282 267 231 210 184
313 288 245 207 214 308 331 337 338 335 332 332 330 326 323 320 323 323 322 319 319 317 311 311 300 290 280 280 279 280 281 243 264 268 261 266 271 275 277 269 248 231 210
296 270 220 215 255 303 329 337 346 336 331 332 329 326 326 326 323 327 324 320 318 323 322 315 312 302 289 284 275 263 260 265 277 250 251 241 260 250 257 241 237 229 222
Height
872 871 870 870 869 869 868 866 866 864 862 860 858 856 854 852 851 850 848 845 843 841 839 838 836 835 834 832 832 830 829 829 828 827 827 828 828 829 826 827 827 829 830
872 870 870 870 869 868 867 866 864 863 861 859 857 855 853 851 850 848 847 844 842 840 838 836 834 832 831 829 828 827 826 824 824 824 823 823 824 823 824 823 823 824 825
871 869 870 869 868 868 866 864 863 861 860 858 857 855 853 850 849 846 845 843 840 838 836 835 832 830 829 828 827 825 824 823 821 820 820 819 819 819 820 818 817 821 822
870 871 869 867 867 867 864 862 862 861 858 857 855 854 851 849 847 845 843 841 839 837 835 833 832 829 828 826 824 823 822 821 819 817 816 818 815 815 814 811 817 819 818
870 869 868 867 866 864 863 862 861 859 858 857 855 852 849 848 846 844 841 840 838 835 833 831 830 828 826 824 822 820 819 818 817 815 813 811 811 812 810 811 816 816 814
868 868 867 867 865 864 862 861 860 857 856 854 852 850 847 845 843 843 841 839 837 834 832 831 829 826 823 821 819 817 816 814 813 812 810 809 807 805 806 807 813 810 809
868 868 868 867 864 863 861 859 857 855 854 851 849 847 844 842 841 840 840 839 836 834 833 831 828 825 822 819 816 814 812 810 809 808 807 806 806 805 806 807 808 804 805
868 868 867 866 864 862 860 858 856 854 853 850 849 845 838 840 839 839 838 837 834 832 831 829 826 824 821 817 813 810 808 806 804 803 802 801 800 800 800 800 799 800 800
868 867 866 864 862 860 858 856 855 854 852 850 849 849 841 837 841 837 836 835 833 831 829 826 823 820 817 814 811 807 804 802 800 797 795 794 793 792 792 792 793 795 794
867 865 863 861 859 857 856 855 853 852 851 851 851 850 849 847 842 834 834 833 832 829 827 825 821 817 814 811 807 804 800 798 796 792 790 788 786 785 784 785 785 786 788
864 862 859 857 855 854 853 851 851 851 851 850 849 848 847 846 844 842 833 831 830 827 825 825 821 816 811 809 806 801 797 793 790 787 785 783 780 779 777 778 779 779 781
861 858 855 853 852 852 851 851 849 848 847 848 848 847 847 845 842 840 836 831 826 823 823 821 818 813 809 806 803 798 794 789 784 781 779 778 776 774 772 772 774 775 776
857 854 851 850 849 849 849 849 848 847 845 846 846 845 844 843 842 839 835 830 826 820 817 816 813 810 806 802 799 795 791 786 780 777 775 773 772 771 770 769 770 771 773
853 849 847 846 847 847 847 846 847 845 844 844 843 842 841 840 839 836 833 832 824 818 813 810 809 806 803 799 795 791 788 783 776 774 771 769 767 767 768 769 768 769 769
849 846 844 845 845 845 845 844 844 843 842 842 841 839 838 836 835 833 832 830 827 816 806 804 802 802 799 794 790 787 783 780 774 771 768 766 763 764 765 766 768 769 768
847 845 844 844 844 843 842 841 840 840 839 839 838 836 834 833 831 830 828 826 824 819 806 804 798 796 793 788 784 781 778 776 773 769 766 764 762 762 761 762 764 765 766
846 844 842 842 841 841 840 838 837 837 836 835 833 832 831 830 828 826 824 821 818 815 808 795 796 791 787 783 779 776 773 772 771 768 764 762 761 759 758 758 758 760 761
845 843 842 840 839 837 835 835 834 834 832 831 830 829 827 826 824 821 818 815 813 810 806 795 791 787 783 779 775 771 768 768 767 766 764 761 760 758 757 755 755 756 757
843 841 839 838 836 834 832 831 831 831 829 828 827 826 824 822 818 815 813 810 807 804 801 796 787 783 779 776 771 767 766 764 764 763 762 761 759 757 754 753 752 753 755
839 837 836 835 832 830 829 828 828 828 826 826 824 822 819 817 814 810 808 805 802 800 796 792 784 780 775 772 770 765 761 760 761 760 759 759 758 756 753 750 750 751 754
836 834 832 831 829 828 826 826 825 825 824 823 820 817 815 812 809 807 804 800 798 795 790 785 781 776 772 769 767 765 761 757 758 758 757 757 756 755 753 751 748 748 750
834 832 830 828 827 827 826 825 823 822 821 819 816 813 810 807 805 802 800 797 795 790 786 781 775 771 769 767 765 764 763 759 754 756 756 755 755 755 754 752 750 747 748
831 829 827 826 825 823 824 823 821 820 818 816 813 810 807 804 802 799 795 792 787 784 782 778 773 770 766 765 763 761 761 759 757 755 757 753 754 754 754 753 753 751 750
827 825 824 823 822 822 822 820 819 817 815 813 810 808 805 802 799 796 791 786 783 779 775 772 769 766 764 762 761 760 758 756 755 754 755 753 752 752 752 752 752 755 754
823 822 821 821 821 821 820 818 817 815 813 811 808 805 803 799 796 793 788 783 779 775 771 768 765 762 760 758 758 757 754 752 751 749 750 751 750 750 750 750 751 752 754
820 819 819 819 819 819 818 816 815 814 812 809 806 803 800 797 794 790 786 781 777 772 768 764 760 757 755 753 752 752 751 750 748 747 746 749 746 748 746 746 747 748 751